Location: Groß Eilstorf
(52.8200°N, 9.4552°E)
Time: 07:44:30
(UTC+00:00)

Daily predictions for brighter satellites

Satellite Brightness Start Highest point End
(mag) Time Altitude Azimuth Time Altitude Azimuth Time Altitude Azimuth
Cosmos 1802 Rocket 4.2 19:46:24 10° SSW 19:52:34 80° W 19:58:45 10° N
Meteor 1-20 Rocket 4.5 19:47:12 10° N 19:52:44 58° ENE 19:58:19 10° SSE
Terra 2.3 19:48:57 10° S 19:53:35 60° WSW 19:58:16 10° NNW
Okean O Rocket 1.6 19:53:50 10° SSE 19:58:07 79° ENE 20:02:27 10° NNW
Cosmos 2333 Rocket 2.3 19:52:33 10° NNW 19:58:17 76° ENE 20:04:00 10° SE
NOSS 3-3 (A) 3.7 19:59:51 10° SSW 20:05:05 70° SE 20:11:26 10° NE
Cosmos 1544 Rocket 3.9 20:01:10 10° SSE 20:05:19 47° E 20:09:28 10° NNE
Cosmos 1437 Rocket 3.2 20:04:27 10° SSE 20:07:45 37° E 20:11:06 10° NNE
Cosmos 2360 Rocket 2.6 20:02:40 10° NNW 20:08:17 58° NE 20:13:53 10° SE
Helios 1A Rocket 3.0 20:05:20 10° N 20:08:26 55° WNW 20:11:31 10° SSW
EP 1 4.2 20:10:39 10° NW 20:13:16 83° SW 20:15:44 12° SE
CZ-4B R/B 4.1 20:08:33 10° S 20:14:01 50° W 20:19:28 10° NNW
Cosmos 2233 Rocket 4.1 20:09:57 10° SSW 20:16:09 82° W 20:22:20 10° N
Cosmos 1486 Rocket 4.1 20:13:34 10° NNW 20:18:50 70° ENE 20:23:55 11° SE
Okean-O 2.9 20:15:59 10° S 20:20:20 67° WSW 20:24:43 10° NNW
Cosmos 1758 Rocket 3.7 20:16:17 10° NNW 20:20:42 81° W 20:25:07 10° S
Cosmos 2219 Rocket 2.8 20:15:29 10° NNW 20:21:00 49° NE 20:26:24 10° SE
Cosmos 909 Rocket 4.0 20:16:05 10° SSW 20:22:21 80° SE 20:29:00 10° NE
CZ-2C R/B 3.2 20:21:09 12° SE 20:23:15 28° ENE 20:25:43 10° N
DNEPR-1 R/B 4.4 20:23:30 10° NW 20:28:52 75° SW 20:34:57 12° SSE
Nadezhda 4 Rocket 4.3 20:23:52 10° N 20:29:53 54° ENE 20:35:27 12° SSE
Meteor 1-25 Rocket 4.2 20:24:24 10° NNW 20:30:07 82° ENE 20:35:42 10° SSE
USA 245 4.3 20:26:02 10° SSE 20:31:55 88° ENE 20:37:21 10° NNW
IRS-1C Rocket 4.2 20:27:08 11° SSE 20:32:13 70° ENE 20:37:30 10° NNW
Cosmos 1825 Rocket 4.1 20:29:08 10° N 20:33:20 45° ENE 20:36:52 14° SE
Cosmos 1805 2.9 20:30:44 10° N 20:33:59 59° ENE 20:36:34 15° SSE
NOSS 3-3 (C) 3.8 20:32:16 10° SW 20:37:38 89° SE 20:44:13 10° NE
Cosmos 220 Rocket 4.0 20:33:42 10° S 20:37:39 54° ESE 20:41:41 10° NNE
Meteor 2-10 4.4 20:32:03 10° N 20:37:47 65° ENE 20:42:50 13° SSE
Cosmos 2322 Rocket 2.2 20:35:10 10° NNW 20:40:52 86° WSW 20:45:49 14° SSE
RESURS DK-1 4.2 20:38:30 10° NNW 20:41:40 22° NE 20:44:48 10° E
Cosmos 1602 Rocket 3.6 20:40:21 10° NNW 20:44:40 79° W 20:48:44 12° S
USA 306 1.7 20:43:19 10° W 20:46:07 58° N 20:47:38 13° ENE
Cosmos 2082 Rocket 3.2 20:41:53 10° SW 20:47:26 50° NW 20:53:01 10° NNE
NOSS 3-4 (A) 4.0 20:41:54 10° NW 20:48:27 69° SW 20:55:06 15° SSE
NOSS 3-4 (C) 4.0 20:42:31 10° NW 20:49:06 70° SW 20:55:45 15° SSE
Cosmos 1707 4.0 20:52:04 13° E 20:52:36 14° E 20:54:11 10° NE
CZ-4B R/B 2.9 20:49:58 13° S 20:52:54 59° WSW 20:56:23 10° NNW
Cosmos 2151 3.9 20:50:57 10° NNW 20:54:52 44° W 20:58:45 10° SSW
Cosmos 1076 Rocket 3.7 20:53:11 10° N 20:57:24 56° ENE 21:00:20 19° SSE
Cosmos 2098 Rocket 3.0 20:53:24 10° S 20:58:03 73° E 21:02:03 10° NNE
Cosmos 44 3.7 20:52:56 10° NW 20:58:22 68° NE 21:02:45 15° SE
Cosmos 2237 Rocket 4.1 20:54:15 10° NNW 20:58:46 23° NNE 21:03:16 10° E
ATLAS 2AS CENTAUR R/B 4.4 20:53:30 10° WNW 20:59:41 34° N 21:05:49 10° NE
CZ-4C R/B 3.8 20:56:23 10° W 21:00:54 36° NNW 21:06:41 10° NE
Ariane Rocket 3.2 20:59:02 13° S 21:03:29 70° WSW 21:08:34 10° NNW
SL-16 R/B 3.4 21:06:43 10° NW 21:11:46 34° WSW 21:16:43 10° S
COSMOS 2428 3.5 21:07:25 10° NNW 21:12:53 44° NE 21:17:37 13° ESE
SPOT 3 Rocket 4.3 21:09:24 11° S 21:14:13 47° W 21:19:12 10° NNW
Cosmos 1470 4.3 21:12:14 10° NNE 21:14:36 18° ENE 21:16:07 14° E
Cosmos 1763 Rocket 3.7 21:10:53 13° S 21:15:26 54° ESE 21:20:35 10° NNE
USA 186 4.3 21:14:48 10° WSW 21:15:54 12° W 21:17:00 10° WNW
ARIANE 5 R/B 4.3 21:15:19 12° ESE 21:18:24 23° ENE 21:21:55 10° N
USA 290 2.0 21:18:07 17° SSW 21:20:25 77° ESE 21:23:34 10° NNE
ALOS 2 4.5 21:17:23 11° ESE 21:20:27 20° ENE 21:23:42 10° N
Cosmos 1898 Rocket 4.3 21:15:38 10° NNW 21:20:35 43° NE 21:24:24 16° ESE
Cosmos 1606 Rocket 3.5 21:17:15 14° S 21:20:56 89° WNW 21:25:16 10° N
Cosmos 990 Rocket 4.0 21:17:22 10° NNW 21:22:33 79° WSW 21:26:04 21° SSE
Cosmos 1464 Rocket 4.0 21:18:49 10° SSW 21:24:58 83° WNW 21:31:13 10° N
Helios 1B rocket 3.1 21:24:22 21° ESE 21:26:05 34° ENE 21:29:18 10° N
ISS -3.8 21:23:12 10° W 21:26:31 61° SSW 21:28:15 25° ESE
Cosmos 1461 3.7 21:23:40 10° WSW 21:27:15 47° NW 21:30:49 10° NE
CZ-4B R/B 4.3 21:23:15 13° SSW 21:27:16 41° W 21:31:53 10° NNW
Okean 1 3.0 21:25:54 19° SSW 21:28:19 85° W 21:31:57 10° N
BREEZE-M DEB (TANK) 1.9 21:26:25 10° WSW 21:28:12 32° SSW 21:28:12 32° SSW
Cosmos 1726 Rocket 3.3 21:25:49 20° S 21:28:36 81° E 21:32:40 10° NNE
COSMOS 2406 4.3 21:26:01 10° SW 21:31:35 48° NW 21:37:10 10° NNE
Okean O Rocket 4.1 21:32:29 10° WSW 21:34:52 15° W 21:37:17 10° NW
Cosmos 1536 2.8 21:31:39 10° N 21:35:18 59° ENE 21:36:59 29° SE
Cosmos-2242 3.0 21:37:47 26° S 21:39:56 61° E 21:44:01 10° NNE
Cosmos 1092 Rocket 4.0 21:34:55 10° N 21:41:08 84° E 21:45:21 22° SSE
Cosmos 2333 Rocket 3.9 21:37:36 10° NW 21:42:00 23° WSW 21:46:24 10° SSW
NOSS 0 Rocket 4.4 21:36:00 10° NNW 21:42:06 56° NE 21:46:51 17° SE
KORONAS-FOTON 4.0 21:43:53 33° SE 21:44:50 42° E 21:48:05 10° NNE
Cosmos 2297 Rocket 3.8 21:46:15 15° ESE 21:47:47 17° E 21:51:12 10° ENE
Cosmos 1833 4.1 21:44:34 10° SSW 21:50:14 85° ESE 21:55:54 10° NNE
Cosmos 2360 Rocket 3.4 21:47:03 10° NW 21:52:01 32° WSW 21:55:44 16° SSW
CZ-2C R/B 4.3 21:52:45 12° SW 21:54:04 16° W 21:55:55 10° NW
Cosmos 1766 3.0 21:52:27 10° NNW 21:55:38 59° W 21:56:45 35° SSW
Cosmos 2322 3.7 21:51:05 10° NNW 21:56:49 84° ENE 22:00:18 25° SE
Cosmos 1842 3.2 21:56:49 37° SE 21:57:22 42° E 22:00:22 10° NNE
Cosmos 1975 3.3 21:54:21 10° N 21:57:53 41° ENE 21:59:14 29° ESE
Spot 4 4.3 21:57:15 24° SE 21:59:55 50° ENE 22:04:34 10° N
Cosmos 372 Rocket 3.9 21:57:34 10° NNW 22:02:42 79° WSW 22:05:24 28° SSE
Cosmos 2034 Rocket 4.3 21:58:36 14° SSW 22:04:13 67° WNW 22:10:32 10° N
Cosmos 2221 3.3 22:03:18 28° SE 22:04:41 36° E 22:08:33 10° NNE
Cosmos 2219 Rocket 3.1 21:59:38 10° NW 22:04:51 39° WSW 22:08:05 21° SSW
Cosmos 1271 Rocket 2.8 22:06:21 39° SE 22:07:03 47° E 22:10:20 10° NNE
SL-08 ROCKET BODY 4.5 22:03:43 10° N 22:09:56 84° E 22:13:38 26° SSE
Cosmos 540 Rocket 3.8 22:07:44 11° SW 22:12:41 66° WNW 22:17:49 10° NNE
USA 306 4.1 22:11:15 10° WNW 22:11:19 10° WNW 22:11:19 10° WNW
Helios 1A 2.9 22:12:12 10° NNE 22:16:08 75° WNW 22:18:07 28° SSW
RESURS DK-1 2.3 22:15:27 10° NW 22:19:25 68° WSW 22:20:45 39° S
Cosmos 2279 Rocket 4.0 22:16:39 26° S 22:20:25 73° E 22:26:40 10° NNE
Aureole 1 Rocket 4.4 22:15:05 10° NW 22:20:40 51° WSW 22:24:34 24° S
Cosmos 2322 Rocket 4.2 22:20:25 10° WNW 22:24:05 18° W 22:27:37 11° SW
Cosmos 1707 3.4 22:23:33 24° WSW 22:24:33 32° WNW 22:27:09 10° N
Cosmos 1634 Rocket 4.1 22:22:33 21° SSW 22:26:49 77° WNW 22:33:04 10° N
Cosmos 1937 Rocket 3.4 22:22:27 10° NNW 22:27:38 87° WSW 22:30:09 31° SSE
TSX-5 4.2 22:26:42 10° NW 22:29:34 33° WSW 22:29:55 32° SW
Geosat 4.0 22:26:49 10° NNE 22:31:52 83° WNW 22:35:38 18° SW
SL-16 R/B 3.9 22:27:05 10° NNW 22:32:03 29° NE 22:37:00 10° E
CZ-2C R/B 3.7 22:27:54 10° NNE 22:32:22 69° ESE 22:34:15 34° S
Cosmos 2058 Rocket 3.7 22:30:59 21° SW 22:33:37 49° WNW 22:37:50 10° N
Cosmos 468 Rocket 4.1 22:30:13 19° SSW 22:34:05 75° WNW 22:39:22 10° NNE
GP-B 3.8 22:30:22 10° NNE 22:34:34 42° E 22:36:11 30° SE
Meteor 2-9 Rocket 4.2 22:33:14 10° NNW 22:38:38 73° W 22:41:25 30° S
CZ-2C R/B 3.4 22:39:09 20° SE 22:42:25 44° ENE 22:47:19 10° N
Lacrosse 4 Rocket 2.9 22:42:44 20° ESE 22:42:45 20° ESE 22:45:43 10° ENE
Cosmos 2237 Rocket 2.3 22:38:02 10° NNW 22:43:46 77° ENE 22:47:09 25° SE
Cosmos 2266 Rocket 3.9 22:41:05 10° N 22:47:10 84° E 22:50:26 29° SSE
USA 234 3.9 22:41:19 10° ENE 22:47:14 35° SE 22:49:36 27° S
SeaSat 1 3.8 22:43:16 10° ESE 22:47:41 35° NE 22:52:07 10° NNW
Cosmos 1980 3.7 22:42:19 10° NNW 22:48:01 86° NE 22:51:12 27° SSE
Cosmos 1470 3.3 22:45:36 10° NNW 22:48:40 36° W 22:49:19 32° WSW
CZ-4C R/B 4.3 22:45:37 10° NW 22:50:38 32° N 22:56:57 10° ENE
ATLAS 2AS CENTAUR R/B 4.0 22:45:52 10° NW 22:52:13 39° NNE 22:58:32 10° E
Intercosmos 24 4.0 22:48:31 10° N 22:52:25 58° ENE 22:53:30 39° SE
ARIANE 5 R/B 2.9 22:52:41 34° SSW 22:54:22 57° W 22:58:47 10° NNW
ALOS 2 2.7 22:54:46 37° S 22:56:24 64° WSW 23:00:47 10° NNW
COSMOS 2428 3.3 22:51:46 10° NW 22:57:10 44° WSW 22:59:34 29° SSW
Cosmos 2227 Rocket 3.6 22:55:49 20° SE 22:57:44 24° ESE 23:02:09 10° NE
Helios 1B rocket 3.7 22:58:18 20° WSW 22:59:09 22° W 23:01:58 10° NW
Cosmos 1898 Rocket 4.3 22:57:46 10° NW 23:02:31 37° WSW 23:04:34 27° SSW
Meteor 2-4 Rocket 4.3 23:00:13 27° SSE 23:02:39 44° E 23:07:55 10° NNE
ISS -1.6 23:00:12 10° W 23:01:11 16° WSW 23:01:11 16° WSW
BlueWalker 3 3.9 23:05:21 15° ESE 23:05:21 15° ESE 23:06:17 10° E
Cosmos 2263 Rocket 3.9 23:03:56 15° SE 23:05:54 18° E 23:09:32 10° ENE
CZ-2C R/B 3.6 23:00:58 10° NNE 23:06:39 56° E 23:09:26 30° SSE
Meteor 1-11 Rocket 3.8 23:01:52 10° NNW 23:07:30 66° W 23:10:10 31° S
Cosmos 1766 Rocket 3.6 23:04:12 10° N 23:08:30 69° ENE 23:10:08 36° SSE
SAR-Lupe-2 3.7 23:10:57 46° SW 23:11:23 50° WSW 23:14:39 10° NNW
Meteor 1-10 Rocket 4.4 23:11:29 28° SSW 23:14:44 82° WNW 23:20:44 10° NNE
Cosmos 1238 Rocket 3.2 23:14:04 39° SSE 23:15:19 58° E 23:19:42 10° NNE
PSLV R/B 3.6 23:11:12 10° NNE 23:15:30 80° WNW 23:17:16 36° SSW
Cosmos 1655 Rocket 4.0 23:14:23 10° N 23:20:40 78° ENE 23:24:14 27° SSE
Cosmos 192 4.3 23:16:54 10° NNW 23:21:53 83° ENE 23:24:20 30° SSE
Alouette 2 Rocket 3.5 23:22:38 10° NNW 23:26:25 87° ENE 23:28:18 35° SSE
Meteor 1-27 Rocket 3.7 23:25:49 31° S 23:28:48 88° E 23:34:33 10° NNE
Meteor 2-10 Rocket 3.8 23:23:28 10° N 23:29:01 73° ENE 23:32:13 27° SSE
Cosmos 841 Rocket 4.1 23:27:23 20° SW 23:30:54 54° WNW 23:36:04 10° NNE
Cosmos 2297 Rocket 2.1 23:27:59 29° SSW 23:30:56 82° ESE 23:36:37 10° NNE
Cosmos 1975 4.5 23:29:56 10° NW 23:32:34 19° W 23:33:29 17° WSW
SL-14 R/B 4.2 23:39:49 28° SE 23:40:58 35° E 23:44:27 10° NNE
CZ-4C R/B 4.0 23:37:56 10° NNE 23:41:05 34° E 23:41:47 31° SE
Cosmos 2221 4.0 23:39:35 18° WSW 23:41:47 28° WNW 23:45:26 10° N
Cosmos 158 Rocket 4.2 23:39:40 32° S 23:42:02 63° ESE 23:47:18 10° NNE
ACS3 Solar Sail 2.5 23:37:06 10° NNE 23:42:47 43° E 23:46:10 23° SSE
MetOp-A 4.3 23:42:38 32° SSW 23:44:26 47° W 23:48:56 10° NNW
Landsat 5 3.6 23:43:08 10° NNE 23:47:11 60° ESE 23:48:28 39° SSE
